EW9539 Weather Reports


time (UTC)temp
C
wind
direction
speed
KPH
gust
KPH
rain 1hr
cm
rain 24hr
cm
rain mn
cm
humidity
%
barometer
mb
20260505060037 13 269 0.0 0.0 0.00 0.00 0.00 76 1008.1
20260505054546 13 269 0.0 0.0 0.00 0.00 0.00 77 1008.1
20260505053035 13 269 0.0 1.6 0.00 0.00 0.00 77 1008.1
20260505051532 13 269 0.0 0.0 0.00 0.00 0.00 79 1008.1
20260505041526 12 269 0.0 0.0 0.00 0.00 0.00 81 1008.0
20260505040024 13 269 0.0 0.0 0.00 0.00 0.00 80 1008.0
20260505034527 13 269 0.0 0.0 0.00 0.00 0.00 80 1008.1
20260505033021 13 269 0.0 0.0 0.00 0.00 0.00 77 1008.0
20260505031520 14 269 0.0 3.2 0.00 0.00 0.00 75 1008.0
20260505030037 15 269 0.0 1.6 0.00 0.00 0.00 73 1008.1
20260505024519 15 269 0.0 3.2 0.00 0.00 0.00 69 1008.1
20260505023019 16 269 0.0 1.6 0.00 0.00 0.00 63 1008.1
20260505021522 17 269 0.0 4.8 0.00 0.00 0.00 61 1008.1
20260505020020 17 271 1.6 4.8 0.00 0.00 0.00 62 1008.2
20260505014520 17 271 0.0 1.6 0.00 0.00 0.00 62 1008.3
20260505013019 17 271 0.0 6.4 0.00 0.00 0.00 59 1008.3
20260505011515 17 355 0.0 1.6 0.00 0.00 0.00 59 1008.3
20260505010016 18 355 0.0 3.2 0.00 0.00 0.00 58 1008.3
20260505004528 18 327 1.6 6.4 0.00 0.00 0.00 57 1008.2
20260505003014 19 328 0.0 6.4 0.00 0.00 0.00 55 1008.1
20260505001515 19 344 0.0 4.8 0.00 0.00 0.00 54 1008.0
20260505000016 20 41 0.0 3.2 0.00 0.00 0.00 54 1008.1
20260504234515 20 36 1.6 8.0 0.00 0.00 0.00 54 1008.0
20260504233014 20 57 0.0 3.2 0.00 0.00 0.00 55 1007.9
20260504231511 20 44 0.0 9.7 0.00 0.00 0.00 53 1007.9
20260504230011 21 340 0.0 8.0 0.00 0.00 0.00 51 1007.8
20260504224510 21 5 1.6 6.4 0.00 0.00 0.00 51 1007.7
20260504223010 22 349 1.6 8.0 0.00 0.00 0.00 48 1008.1
20260504221511 21 348 3.2 9.7 0.00 0.00 0.00 48 1008.2
20260504220010 21 311 3.2 11.3 0.00 0.00 0.00 49 1008.2
20260504214510 22 28 1.6 8.0 0.00 0.00 0.00 47 1007.9
20260504213024 22 360 1.6 14.5 0.00 0.00 0.00 47 1007.7
20260504211510 22 36 1.6 16.1 0.00 0.00 0.00 47 1007.8
20260504210008 22 355 4.8 17.7 0.00 0.00 0.00 45 1007.8
20260504204508 22 341 1.6 16.1 0.00 0.00 0.00 47 1007.8
20260504203006 23 12 4.8 12.9 0.00 0.00 0.00 44 1007.7
20260504201505 24 56 4.8 19.3 0.00 0.00 0.00 42 1007.8
20260504200006 23 30 3.2 11.3 0.00 0.00 0.00 44 1008.0
20260504194606 22 338 1.6 9.7 0.00 0.00 0.00 46 1008.1
20260504193059 23 328 3.2 8.0 0.00 0.00 0.00 46 1008.2
20260504191621 22 13 1.6 12.9 0.00 0.00 0.00 45 1008.4
20260504190059 22 355 3.2 19.3 0.00 0.00 0.00 46 1008.7
20260504184602 22 267 3.2 14.5 0.00 0.00 0.00 50 1008.7
20260504183050 22 51 1.6 16.1 0.00 0.00 0.00 49 1009.1
20260504181548 22 27 3.2 12.9 0.00 0.00 0.00 51 1009.2
20260504180047 21 346 3.2 16.1 0.00 0.00 0.00 54 1009.2
20260504174544 21 28 4.8 16.1 0.00 0.00 0.00 49 1009.4
20260504173044 21 26 3.2 19.3 0.00 0.00 0.00 51 1009.6
20260504171543 20 345 3.2 14.5 0.00 0.00 0.00 54 1009.8
20260504081507 9 275 0.0 3.2 0.00 0.00 0.00 64 1013.9